Back to catalog

STARLINK-5491

AliveCommunicationsVLEO
NORAD 55332·PAYLOAD·🇺🇸 United States

Launched Jan 26, 2023 from Cape Canaveral Space Force Station

Loading…

Next Passes (next 24 hours)

TLE

FreshSource: CelesTrak SupGP

Epoch: Sep 15, 2026, 01:51 UTC

1 55332C 23013B   26258.07756944  .00031586  00000+0  11440-2 0  2584
2 55332  43.0004 299.4492 0001474 260.1658 113.8065 15.27562028    17

Track STARLINK-5491 in real time with AllMySat

Download on the App Store